Simultaneous Nadir Overpasses (SNOs) Predictions

Prediction of SNOs between METOP-B and NOAA-19 Satellite Orbit:

Table of predicted SNOs for the next 14.0 days since TLE Epoch: 5/8/2015
Index Date (METOP-B) Time (METOP-B) Lat,Lon (METOP-B) SZA (METOP-B ) Date (NOAA-19) Time (NOAA-19) Lat,Lon (NOAA-19) SZA (NOAA-19 ) Distance(km) Time Diff (sec)
1 05/11/2015 06:17:42 74.83, 82.73 56.95 05/11/2015 06:16:29 74.85, 82.69 56.97 2.49 73
2 05/11/2015 07:08:24 -74.83,-109.96 123.07 05/11/2015 07:07:30 -74.80,-109.92 123.09 3.17 54
3 05/11/2015 07:59:04 74.81, 57.33 56.91 05/11/2015 07:58:31 74.82, 57.28 56.92 1.71 33
4 05/11/2015 08:49:46 -74.80,-135.36 123.11 05/11/2015 08:49:33 -74.81,-135.47 123.10 3.34 13
5 05/11/2015 09:40:26 74.79, 31.93 56.87 05/11/2015 09:40:33 74.78, 31.87 56.87 1.97 7
6 05/11/2015 10:31:08 -74.78,-160.76 123.15 05/11/2015 10:31:35 -74.78,-160.88 123.15 3.61 27
7 05/11/2015 11:21:48 74.77, 6.53 56.83 05/11/2015 11:22:35 74.75, 6.46 56.81 3.00 47
8 05/11/2015 12:12:31 -74.71, 173.71 123.23 05/11/2015 12:13:37 -74.74, 173.71 123.20 3.66 66
9 05/11/2015 13:03:20 74.26, -20.15 56.32 05/11/2015 13:04:28 74.28, -17.77 56.32 71.85 68
10 05/21/2015 17:09:21 -75.12, 100.62 125.18 05/21/2015 17:08:10 -75.17, 99.02 125.11 45.97 71
11 05/21/2015 18:00:06 74.87, -92.78 54.57 05/21/2015 17:59:07 74.88, -92.88 54.58 3.29 59
12 05/21/2015 18:50:48 -74.86, 74.54 125.45 05/21/2015 18:50:06 -74.85, 74.44 125.45 2.80 42
13 05/21/2015 19:41:28 74.84,-118.18 54.53 05/21/2015 19:41:09 74.84,-118.29 54.53 3.37 19
14 05/21/2015 20:32:11 -74.79, 49.00 125.53 05/21/2015 20:32:08 -74.82, 49.03 125.50 3.52 3
15 05/21/2015 21:22:50 74.82,-143.58 54.50 05/21/2015 21:23:11 74.81,-143.71 54.49 3.88 21
16 05/21/2015 22:13:33 -74.77, 23.60 125.57 05/21/2015 22:14:10 -74.79, 23.61 125.55 2.35 37
17 05/21/2015 23:04:13 74.75,-169.11 54.41 05/21/2015 23:05:13 74.78,-169.12 54.44 3.05 60
18 05/21/2015 23:54:57 -74.65, -2.06 125.70 05/21/2015 23:56:10 -74.66, -1.53 125.69 15.65 73




NCC Satellite Simultaneous Nadir Overpasses (SN
